Volver al catálogo

SHERPA-LTC2

ActivoCienciaLEO
NORAD 53754·PAYLOAD·🇺🇸 United States

Lanzado Sep 5, 2022 desde Cape Canaveral Space Force Station

Loading…

Próximos Pases (próximas 24 horas)

TLE

ActualizadoSource: Space-Track

Época: Sep 14, 2026, 02:52 UTC

1 53754U 22107BG  26257.11967099  .00003765  00000-0  19649-3 0  9993
2 53754  53.2336 203.6531 0393926 115.0221 249.2195 14.70293231215622

Sigue SHERPA-LTC2 en tiempo real con AllMySat

Download on the App Store